TimeCDT,TemperatureF,Dew PointF,Humidity,Sea Level PressureIn,VisibilityMPH,Wind Direction,Wind SpeedMPH,Gust SpeedMPH,PrecipitationIn,Events,Conditions,WindDirDegrees,DateUTC
12:54 AM,48.9,46.9,93,29.96,8.0,Calm,Calm,-,N/A,,Clear,0,2012-10-03 05:54:00
1:17 AM,46.4,46.4,100,29.95,1.0,Calm,Calm,-,N/A,,Clear,0,2012-10-03 06:17:00
1:21 AM,44.6,44.6,100,29.95,0.2,Calm,Calm,-,N/A,Fog,Fog,0,2012-10-03 06:21:00
1:32 AM,44.6,44.6,100,29.95,2.0,SE,3.5,-,N/A,,Partly Cloudy,140,2012-10-03 06:32:00
1:39 AM,46.4,44.6,93,29.95,6.0,Calm,Calm,-,N/A,,Partly Cloudy,0,2012-10-03 06:39:00
1:54 AM,46.0,44.1,93,29.96,1.2,Calm,Calm,-,N/A,,Clear,0,2012-10-03 06:54:00
2:05 AM,44.6,44.6,100,29.95,3.0,Calm,Calm,-,N/A,,Clear,0,2012-10-03 07:05:00
2:08 AM,46.4,44.6,93,29.95,1.8,Calm,Calm,-,N/A,,Clear,0,2012-10-03 07:08:00
2:13 AM,46.4,44.6,93,29.96,0.8,Calm,Calm,-,N/A,,Clear,0,2012-10-03 07:13:00
2:29 AM,44.6,42.8,93,29.96,1.2,NNW,3.5,-,N/A,,Clear,330,2012-10-03 07:29:00
2:35 AM,44.6,44.6,100,29.96,3.0,Calm,Calm,-,N/A,,Clear,0,2012-10-03 07:35:00
2:48 AM,44.6,42.8,93,29.95,1.8,Calm,Calm,-,N/A,,Clear,0,2012-10-03 07:48:00
2:54 AM,44.1,42.1,93,29.96,1.5,Calm,Calm,-,N/A,,Clear,0,2012-10-03 07:54:00
3:00 AM,42.8,42.8,100,29.95,0.8,Calm,Calm,-,N/A,,Clear,0,2012-10-03 08:00:00
3:07 AM,42.8,42.8,100,29.96,0.5,Calm,Calm,-,N/A,Fog,Fog,0,2012-10-03 08:07:00
3:16 AM,44.6,42.8,93,29.96,2.0,Calm,Calm,-,N/A,,Partly Cloudy,0,2012-10-03 08:16:00
3:25 AM,44.6,42.8,93,29.96,0.8,Calm,Calm,-,N/A,,Mist,0,2012-10-03 08:25:00
3:35 AM,42.8,41.0,93,29.96,1.0,Calm,Calm,-,N/A,,Clear,0,2012-10-03 08:35:00
3:54 AM,44.1,43.0,96,29.96,0.8,NNE,3.5,-,N/A,,Clear,20,2012-10-03 08:54:00
4:02 AM,42.8,42.8,100,29.96,1.2,Calm,Calm,-,N/A,,Clear,0,2012-10-03 09:02:00
4:06 AM,42.8,42.8,100,29.96,3.0,Calm,Calm,-,N/A,,Clear,0,2012-10-03 09:06:00
4:10 AM,42.8,41.0,93,29.96,1.5,Calm,Calm,-,N/A,,Clear,0,2012-10-03 09:10:00
4:16 AM,42.8,41.0,93,29.96,0.8,Calm,Calm,-,N/A,,Clear,0,2012-10-03 09:16:00
4:20 AM,42.8,42.8,100,29.96,1.2,Calm,Calm,-,N/A,,Clear,0,2012-10-03 09:20:00
4:25 AM,42.8,42.8,100,29.96,3.0,Calm,Calm,-,N/A,,Clear,0,2012-10-03 09:25:00
4:35 AM,44.6,42.8,93,29.96,1.8,Calm,Calm,-,N/A,,Clear,0,2012-10-03 09:35:00
4:42 AM,44.6,42.8,93,29.96,3.0,Calm,Calm,-,N/A,,Clear,0,2012-10-03 09:42:00
4:51 AM,42.8,41.0,93,29.97,1.8,Calm,Calm,-,N/A,,Clear,0,2012-10-03 09:51:00
4:54 AM,42.1,41.0,96,29.97,1.0,Calm,Calm,-,N/A,,Clear,0,2012-10-03 09:54:00
5:01 AM,42.8,41.0,93,29.97,0.5,Calm,Calm,-,N/A,Fog,Fog,0,2012-10-03 10:01:00
5:34 AM,41.0,39.2,93,29.98,1.0,Calm,Calm,-,N/A,,Mist,0,2012-10-03 10:34:00
5:50 AM,42.8,39.2,87,29.98,0.5,East,3.5,-,N/A,Fog,Fog,90,2012-10-03 10:50:00
5:54 AM,43.0,41.0,93,29.99,0.2,East,3.5,-,N/A,Fog,Fog,90,2012-10-03 10:54:00
6:54 AM,42.1,41.0,96,30.00,0.2,East,3.5,-,N/A,Fog,Fog,90,2012-10-03 11:54:00
7:47 AM,42.8,42.8,100,29.99,1.5,Calm,Calm,-,N/A,,Mostly Cloudy,0,2012-10-03 12:47:00
7:52 AM,44.6,42.8,93,29.99,2.0,Calm,Calm,-,N/A,,Scattered Clouds,0,2012-10-03 12:52:00
7:54 AM,44.1,43.0,96,30.01,3.0,Calm,Calm,-,N/A,,Scattered Clouds,0,2012-10-03 12:54:00
8:54 AM,48.0,46.0,93,30.01,8.0,Calm,Calm,-,N/A,,Clear,0,2012-10-03 13:54:00
9:54 AM,57.9,50.0,75,30.01,10.0,Calm,Calm,-,N/A,,Clear,0,2012-10-03 14:54:00
10:54 AM,64.0,51.1,63,30.00,10.0,Calm,Calm,-,N/A,,Clear,0,2012-10-03 15:54:00
11:54 AM,66.9,51.1,57,29.99,10.0,Calm,Calm,-,N/A,,Clear,0,2012-10-03 16:54:00
12:54 PM,70.0,50.0,49,29.97,10.0,ENE,3.5,-,N/A,,Clear,60,2012-10-03 17:54:00
1:54 PM,72.0,48.9,44,29.95,10.0,Calm,Calm,-,N/A,,Clear,0,2012-10-03 18:54:00
3:54 PM,72.0,46.9,41,29.93,10.0,South,4.6,-,N/A,,Clear,170,2012-10-03 20:54:00
4:54 PM,72.0,46.0,40,29.93,10.0,SE,6.9,-,N/A,,Clear,140,2012-10-03 21:54:00
5:54 PM,69.1,44.1,40,29.94,10.0,East,6.9,-,N/A,,Clear,100,2012-10-03 22:54:00
6:54 PM,61.0,45.0,56,29.96,10.0,Calm,Calm,-,N/A,,Clear,0,2012-10-03 23:54:00
7:54 PM,57.9,45.0,62,29.98,10.0,Calm,Calm,-,N/A,,Clear,0,2012-10-04 00:54:00
8:54 PM,55.9,45.0,67,29.97,10.0,ESE,4.6,-,N/A,,Clear,110,2012-10-04 01:54:00
9:54 PM,54.0,44.1,69,29.99,10.0,SE,4.6,-,N/A,,Clear,140,2012-10-04 02:54:00
10:54 PM,53.1,44.1,71,29.99,10.0,SE,4.6,-,N/A,,Clear,140,2012-10-04 03:54:00
11:54 PM,53.1,44.1,71,29.99,10.0,SSE,4.6,-,N/A,,Clear,160,2012-10-04 04:54:00